DECAYED

CZ-7 DEB, 64788 (Decayed)

Orbit data source: Space-Track

CZ-7 DEB, 64788 was space debris in LEO originally from a launch on Mon, 14 Jul 2025 UTC launched from the Wenchang Satellite Launch Center (WSC). Debris objects in space refer to the collection of defunct objects orbiting the Earth. Examples of debris include non-operational satellites, rocket bodies, and fragments generated from explosions, collisions, or faulty payload assembly.

Not visible in the next 10 days
Identifier
64788, 2025-149C
Orbit
Decayed
Country
Flag of CNCN / PRC
Related business
Manufacturer
CALT
Mission
Decayed spacecraft
Bus & Motor
Unknown
Mass
Unknown
Launch date (UTC)
2025-07-14 (2 months ago)
Launch vehicle
Unknown
Launch site
Wenchang Satellite Launch Center (WSC)
Object type
Payload
Rocket body
Debris
Shape & HBR
Unknown
Radar Cross Section
Medium (>0.1 m² and <1 m²)

Expand to show TLE details & history
Last TLE update: 1 month ago

TLE from 1 month ago
0 CZ-7 DEB
1 64788U 25149C   25199.02818894  .07069983  72772-5  27876-2 0  9994
2 64788  41.6244 192.8415 0115111 203.3467 156.2138 16.08501629   498
Epoch: 2025-07-18T00:40Z
TLE epoch observation values (Epoch: 2025-07-18T00:40:35.524Z)
Latitude
-0.00002°
Longitude
-113.39207°
Altitude
320.521 km
Speed
7.677 km/s
True Right ascension
12h 51m 21s
True Declination
0° 00' 00"
Sunlit
Object was in daylight at epoch
Visualization orbit readout
Latitude
Unknown
Longitude
Unknown
Altitude
Unknown
Speed
Unknown
Apparent Right ascension
Unknown
Apparent Declination
Unknown
Sunlit
N/A
Visualization observer readout
Local Sidereal Time
11:28:49
Azimuth
Unknown
Elevation
Unknown
Doppler factor
Unknown
Orbital elements
Apogee altitude
329.543 km
Perigee altitude
176.875 km
Semi-major axis
6,631.346 km
Eccentricity
0.01151
Inclination
41.6244°
RAAN
192.8415°
Arg. of periapsis
203.3467°
True anomaly
156.73889°
Mean anomaly
156.2138°
Eccentric anomaly
156.47703°
Mean motion
4.01921 °/min
Orbital period
89.57 mins
BSTAR
0.0027876
Loading maneuver chart data...
Computing Atmospheric mass density...
Loading historical data...
Loading historical data...
Loading historical data...
Loading historical data...
Loading historical data...
Loading historical data...
Loading historical data...
Other satellites on launch #149 in the year 2025 (2025-07-14 UTC)

Documentation

Showing up to 5 results
|